Weather History for Wrangell, AK

Change the Weather History Date:

Thursday, February 20, 2014

  Actual Average Record
Temperature  
Mean Temperature 32 °F -  
Max Temperature 33 °F 39 °F 54 °F (1977)
Min Temperature 30 °F 28 °F 7 °F (1986)
Degree Days  
Heating Degree Days 34    
Moisture  
Dew Point 27 °F    
Average Humidity 79    
Maximum Humidity 87    
Minimum Humidity 70    
Precipitation  
Precipitation 0.03 in - - ()
Sea Level Pressure  
Sea Level Pressure 29.90 in    
Wind  
Wind Speed 3 mph (SSW)    
Max Wind Speed 9 mph    
Max Gust Speed -    
Visibility 8 miles    
Events      
Averages and records for this station are not official NWS values.
T = Trace of Precipitation, MM = Missing Value Source: NWS Daily Summary

Daily Weather History Graph

Daily Weather History Graph

Search for Another Location

Airport:

Trip Planner

Search our weather history database for the weather conditions in past years. The results will help you decide how hot, cold, wet, or windy it might be!

Date:

Astronomy

Feb. 20, 2014 Rise Set
Actual Time 7:03 AM AKST 5:03 PM AKST
Civil Twilight 6:25 AM AKST 5:42 PM AKST
Nautical Twilight 5:41 AM AKST 6:26 PM AKST
Astronomical Twilight 4:57 AM AKST 7:09 PM AKST
Moon No Moon Rise 8:43 AM AKST (2/20)
Length of Visible Light 11h 17m
Length of Day
10h 00m
Waning Gibbous, 69% of the Moon is Illuminated
Feb 20
Waning Gibbous
Feb 22
Last Quarter
Feb 28
New
Mar 8
First Quarter
Mar 16
Full

Hourly Weather History & Observations

Time (AKST) Temp. Windchill Dew Point Humidity Pressure Visibility Wind Dir Wind Speed Gust Speed Precip Events Conditions
12:16 AM 32.0 °F - 26.6 °F 80% 29.70 in 10.0 mi Calm Calm - N/A   Overcast
12:36 AM 32.0 °F - 26.6 °F 80% 29.71 in 10.0 mi Calm Calm - N/A   Overcast
12:56 AM 32.0 °F - 26.6 °F 80% 29.71 in 3.0 mi Calm Calm - N/A   Mostly Cloudy
1:16 AM 32.0 °F - 26.6 °F 80% 29.71 in 2.0 mi Calm Calm - N/A   Overcast
1:36 AM 32.0 °F 28.7 °F 26.6 °F 80% 29.71 in 8.0 mi SE 3.5 mph - N/A   Overcast
1:56 AM 32.0 °F 26.4 °F 28.4 °F 87% 29.72 in 2.5 mi ESE 5.8 mph - N/A   Overcast
2:16 AM 32.0 °F 26.4 °F 26.6 °F 80% 29.72 in 7.0 mi ESE 5.8 mph - N/A   Overcast
2:36 AM 32.0 °F 26.4 °F 26.6 °F 80% 29.73 in 10.0 mi South 5.8 mph - N/A   Overcast
2:56 AM 32.0 °F 26.4 °F 26.6 °F 80% 29.73 in 5.0 mi ESE 5.8 mph - N/A   Overcast
3:16 AM 32.0 °F 27.5 °F 26.6 °F 80% 29.73 in 2.0 mi SE 4.6 mph - N/A   Overcast
3:36 AM 32.0 °F 27.5 °F 26.6 °F 80% 29.73 in 5.0 mi ESE 4.6 mph - N/A   Overcast
3:56 AM 32.0 °F 26.4 °F 26.6 °F 80% 29.73 in 10.0 mi ESE 5.8 mph - N/A   Overcast
4:16 AM 32.0 °F - 26.6 °F 80% 29.73 in 10.0 mi Calm Calm - N/A   Mostly Cloudy
4:36 AM 32.0 °F 27.5 °F 28.4 °F 87% 29.73 in 10.0 mi SE 4.6 mph - N/A   Mostly Cloudy
4:56 AM 32.0 °F 25.6 °F 26.6 °F 80% 29.73 in 10.0 mi East 6.9 mph - N/A   Scattered Clouds
5:16 AM 33.8 °F 28.6 °F 26.6 °F 75% 29.74 in 10.0 mi SE 5.8 mph - N/A   Mostly Cloudy
5:36 AM 32.0 °F 26.4 °F 26.6 °F 80% 29.74 in 10.0 mi SE 5.8 mph - N/A   Overcast
5:56 AM 32.0 °F - 26.6 °F 80% 29.74 in 10.0 mi Calm Calm - N/A   Overcast
6:16 AM 33.8 °F 26.4 °F 26.6 °F 75% 29.74 in 10.0 mi ESE 9.2 mph - N/A   Overcast
6:36 AM 33.8 °F 27.7 °F 26.6 °F 75% 29.74 in 10.0 mi SE 6.9 mph - N/A   Overcast
6:56 AM 32.0 °F 25.6 °F 24.8 °F 75% 29.75 in 10.0 mi SE 6.9 mph - N/A   Overcast
7:16 AM 32.0 °F 28.7 °F 26.6 °F 80% 29.76 in 10.0 mi SW 3.5 mph - N/A   Overcast
7:36 AM 33.8 °F - 26.6 °F 75% 29.76 in 10.0 mi Calm Calm - N/A   Overcast
7:56 AM 33.8 °F - 26.6 °F 75% 29.77 in 10.0 mi Calm Calm - N/A   Overcast
8:16 AM 33.8 °F 28.6 °F 26.6 °F 75% 29.77 in 10.0 mi SE 5.8 mph - N/A   Overcast
8:36 AM 33.8 °F 30.8 °F 26.6 °F 75% 29.78 in 10.0 mi ESE 3.5 mph - N/A   Overcast
8:56 AM 33.8 °F 29.6 °F 26.6 °F 75% 29.79 in 10.0 mi SE 4.6 mph - N/A   Overcast
9:16 AM 32.0 °F 27.5 °F 26.6 °F 80% 29.79 in 10.0 mi East 4.6 mph - N/A   Overcast
9:36 AM 33.8 °F 30.8 °F 26.6 °F 75% 29.80 in 10.0 mi SSE 3.5 mph - N/A   Overcast
9:56 AM 32.0 °F - 26.6 °F 80% 29.81 in 10.0 mi Calm Calm - N/A   Overcast
10:16 AM 33.8 °F - 26.6 °F 75% 29.83 in 10.0 mi Calm Calm - N/A   Overcast
10:36 AM 33.8 °F - 26.6 °F 75% 29.84 in 10.0 mi Calm Calm - N/A   Overcast
10:56 AM 33.8 °F - 26.6 °F 75% 29.85 in 10.0 mi Calm Calm - 0.01 in   Overcast
11:16 AM 33.8 °F 30.8 °F 26.6 °F 75% 29.86 in 10.0 mi NNW 3.5 mph - N/A   Overcast
11:36 AM 33.8 °F 29.6 °F 24.8 °F 70% 29.87 in 6.0 mi WNW 4.6 mph - 0.01 in   Overcast
11:56 AM 33.8 °F 27.0 °F 24.8 °F 70% 29.88 in 7.0 mi NW 8.1 mph - 0.01 in   Overcast
12:16 PM 33.8 °F 28.6 °F 24.8 °F 70% 29.88 in 5.0 mi NNW 5.8 mph - N/A   Overcast
12:36 PM 33.8 °F 28.6 °F 24.8 °F 70% 29.89 in 5.0 mi NW 5.8 mph - N/A   Overcast
12:56 PM 32.0 °F 27.5 °F 24.8 °F 75% 29.90 in 5.0 mi West 4.6 mph - N/A   Overcast
1:16 PM 33.8 °F 28.6 °F 26.6 °F 75% 29.91 in 7.0 mi WNW 5.8 mph - N/A   Overcast
1:36 PM 33.8 °F 28.6 °F 26.6 °F 75% 29.92 in 7.0 mi West 5.8 mph - N/A   Mostly Cloudy
1:56 PM 33.8 °F 29.6 °F 26.6 °F 75% 29.93 in 7.0 mi WSW 4.6 mph - N/A   Mostly Cloudy
2:16 PM 33.8 °F 29.6 °F 26.6 °F 75% 29.94 in 10.0 mi SW 4.6 mph - N/A   Mostly Cloudy
2:36 PM 33.8 °F 29.6 °F 26.6 °F 75% 29.95 in 5.0 mi West 4.6 mph - N/A   Mostly Cloudy
2:56 PM 33.8 °F - 28.4 °F 81% 29.95 in 7.0 mi Calm Calm - N/A   Overcast
3:16 PM 33.8 °F 30.8 °F 28.4 °F 81% 29.96 in 7.0 mi North 3.5 mph - N/A   Overcast
3:36 PM 33.8 °F - 28.4 °F 81% 29.97 in 7.0 mi Calm Calm - 0.01 in   Overcast
3:56 PM 32.0 °F - 28.4 °F 87% 29.98 in 4.0 mi Calm Calm - 0.01 in   Overcast
4:16 PM 32.0 °F - 28.4 °F 87% 30.00 in 4.0 mi Calm Calm - N/A   Overcast
4:36 PM 33.8 °F 30.8 °F 28.4 °F 81% 30.01 in 4.0 mi West 3.5 mph - N/A   Overcast
4:56 PM 32.0 °F 24.8 °F 28.4 °F 87% 30.02 in 3.0 mi NNW 8.1 mph - N/A   Overcast
5:16 PM 33.8 °F 28.6 °F 28.4 °F 81% 30.03 in 3.0 mi NW 5.8 mph - N/A   Overcast
5:36 PM 33.8 °F 27.7 °F 28.4 °F 81% 30.03 in 3.0 mi NNW 6.9 mph - N/A   Overcast
5:56 PM 32.0 °F 28.7 °F 26.6 °F 80% 30.04 in 7.0 mi South 3.5 mph - N/A   Scattered Clouds
6:16 PM 32.0 °F - 26.6 °F 80% 30.04 in 7.0 mi Calm Calm - N/A   Scattered Clouds
6:36 PM 30.2 °F 26.7 °F 26.6 °F 86% 30.05 in 10.0 mi SSW 3.5 mph - N/A   Scattered Clouds
6:56 PM 30.2 °F - 26.6 °F 86% 30.06 in 10.0 mi Calm Calm - N/A   Scattered Clouds
7:16 PM 30.2 °F 26.7 °F 24.8 °F 80% 30.07 in 10.0 mi SSW 3.5 mph - N/A   Clear
7:36 PM 30.2 °F 26.7 °F 24.8 °F 80% 30.08 in 10.0 mi South 3.5 mph - N/A   Clear
7:56 PM 30.2 °F 25.4 °F 26.6 °F 86% 30.08 in 10.0 mi SE 4.6 mph - N/A   Overcast
8:16 PM 32.0 °F 26.4 °F 26.6 °F 80% 30.09 in 10.0 mi SSE 5.8 mph - N/A   Overcast
8:36 PM 32.0 °F 25.6 °F 26.6 °F 80% 30.10 in 10.0 mi WSW 6.9 mph - N/A   Overcast
8:56 PM 32.0 °F 27.5 °F 26.6 °F 80% 30.11 in 10.0 mi West 4.6 mph - N/A   Overcast
9:16 PM 32.0 °F 27.5 °F 26.6 °F 80% 30.12 in 10.0 mi WSW 4.6 mph - N/A   Overcast
9:36 PM 32.0 °F 27.5 °F 26.6 °F 80% 30.13 in 10.0 mi West 4.6 mph - N/A   Overcast
9:56 PM 32.0 °F 27.5 °F 26.6 °F 80% 30.14 in 10.0 mi West 4.6 mph - N/A   Mostly Cloudy
10:16 PM 32.0 °F 28.7 °F 26.6 °F 80% 30.15 in 10.0 mi WSW 3.5 mph - N/A   Mostly Cloudy
10:36 PM 32.0 °F - 26.6 °F 80% 30.16 in 10.0 mi Calm Calm - N/A   Mostly Cloudy
10:56 PM 32.0 °F - 26.6 °F 80% 30.17 in 10.0 mi Calm Calm - N/A   Mostly Cloudy
11:16 PM 32.0 °F 28.7 °F 26.6 °F 80% 30.17 in 10.0 mi SSW 3.5 mph - N/A   Overcast
11:36 PM 32.0 °F - 26.6 °F 80% 30.18 in 10.0 mi Calm Calm - N/A   Overcast
11:56 PM 32.0 °F 28.7 °F 26.6 °F 80% 30.18 in 10.0 mi West 3.5 mph - N/A   Mostly Cloudy